This is the latest recevied weather packets stored in our database for station/object KN6CRX. If no packets are shown the sender has not sent any weather packets the latest 10 day(s).
| Time | Temp. | Humidity | Pressure | Rain* | Wind** | Luminosity | Snow |
|---|---|---|---|---|---|---|---|
| 1787695309 | 31.11° C | 25% | 1023.7 hPa | 0 mm | - | 144 W/m² | - |
| 1787695008 | 32.78° C | 23% | 1023.6 hPa | 0 mm | - | 131 W/m² | - |
| 1787694708 | 33.33° C | 22% | 1023.8 hPa | 0 mm | - | 251 W/m² | - |
| 1787694403 | 32.78° C | 22% | 1023.7 hPa | 0 mm | - | 741 W/m² | - |
| 1787694098 | 32.78° C | 23% | 1023.7 hPa | 0 mm | - | 766 W/m² | - |
| 1787693794 | 33.33° C | 22% | 1023.8 hPa | 0 mm | - | 781 W/m² | - |
| 1787693490 | 33.33° C | 23% | 1023.8 hPa | 0 mm | - | 810 W/m² | - |
| 1787693186 | 32.78° C | 23% | 1023.8 hPa | 0 mm | - | 827 W/m² | - |
| 1787692881 | 32.78° C | 21% | 1023.9 hPa | 0 mm | - | 795 W/m² | - |
| 1787692576 | 32.22° C | 21% | 1024 hPa | 0 mm | - | 793 W/m² | - |
| 1787692276 | 32.22° C | 22% | 1024.1 hPa | 0 mm | - | 794 W/m² | - |
| 1787691971 | 32.22° C | 23% | 1024.1 hPa | 0 mm | - | 804 W/m² | - |
| 1787691670 | 32.22° C | 22% | 1024.4 hPa | 0 mm | - | 818 W/m² | - |
| 1787691369 | 32.22° C | 24% | 1024.4 hPa | 0 mm | - | 833 W/m² | - |
| 1787691063 | 32.22° C | 26% | 1024.5 hPa | 0 mm | - | 826 W/m² | - |
| 1787690758 | 32.22° C | 25% | 1024.5 hPa | 0 mm | - | 828 W/m² | - |
| 1787690453 | 31.67° C | 26% | 1024.6 hPa | 0 mm | - | 840 W/m² | - |
| 1787690149 | 31.67° C | 25% | 1024.5 hPa | 0 mm | - | 850 W/m² | - |
| 1787689845 | 31.11° C | 25% | 1024.6 hPa | 0 mm | - | 841 W/m² | - |
| 1787689541 | 31.11° C | 24% | 1024.7 hPa | 0 mm | - | 852 W/m² | - |
| 1787689236 | 31.11° C | 27% | 1024.7 hPa | 0 mm | - | 848 W/m² | - |
| 1787688931 | 31.11° C | 28% | 1024.8 hPa | 0 mm | - | 838 W/m² | - |
| 1787688627 | 30.56° C | 27% | 1025.1 hPa | 0 mm | - | 846 W/m² | - |
| 1787688326 | 30.56° C | 27% | 1024.8 hPa | 0 mm | - | 856 W/m² | - |
| 1787688022 | 30.56° C | 27% | 1025.2 hPa | 0 mm | - | 852 W/m² | - |
* Rain latest hour (hover to see other rain measurements)
** Current wind speed in m/s (hover to see current wind gust speed)